EW1336 Weather Reports


Display with metric or nautical units.
time (UTC)temp
F
wind
direction
speed
MPH
gust
MPH
rain 1hr
in
rain 24hr
in
rain mn
in
humidity
%
barometer
mb
20260502163040 50 214 0.0 1.0 0.00 0.00 0.00 48 1010.6
20260502161536 50 222 0.0 1.0 0.00 0.00 0.00 48 1010.4
20260502151520 46 47 0.0 0.0 0.00 0.00 0.00 68 1010.5
20260502123106 39 212 0.0 0.0 0.00 0.00 0.00 73 1010.2
20260502121557 38 224 0.0 0.0 0.00 0.00 0.00 68 1010.2
20260502114553 38 253 0.0 0.0 0.00 0.00 0.00 64 1010.4
20260502113053 39 214 0.0 1.0 0.00 0.00 0.00 63 1010.5
20260502111551 39 224 0.0 0.0 0.00 0.00 0.00 63 1010.4
20260502110057 39 214 0.0 0.0 0.00 0.00 0.00 62 1010.4
20260502104550 40 214 0.0 0.0 0.00 0.00 0.00 61 1010.5
20260502103054 40 214 0.0 0.0 0.00 0.00 0.00 59 1010.4
20260502101603 41 211 0.0 1.0 0.00 0.00 0.00 57 1010.4
20260502071521 43 166 0.0 1.0 0.00 0.00 0.00 44 1011.7
20260502070023 42 191 0.0 0.0 0.00 0.00 0.00 49 1011.6
20260502064515 43 212 0.0 0.0 0.00 0.00 0.00 50 1011.6
20260502063010 43 207 0.0 0.0 0.00 0.00 0.00 49 1011.6
20260502061504 43 176 0.0 0.0 0.00 0.00 0.00 50 1011.5
20260502060101 43 181 0.0 1.0 0.00 0.00 0.00 55 1011.7
20260502054602 43 158 0.0 0.0 0.00 0.00 0.00 59 1011.8
20260502053110 43 158 0.0 1.0 0.00 0.00 0.00 58 1011.7
20260502051548 43 243 0.0 0.0 0.00 0.00 0.00 59 1011.9
20260502050043 44 222 0.0 0.0 0.00 0.00 0.00 57 1011.9
20260502044543 44 215 0.0 0.0 0.00 0.00 0.00 55 1011.9
20260502043042 44 215 0.0 0.0 0.00 0.00 0.00 53 1011.9
20260502041541 45 214 0.0 0.0 0.00 0.00 0.00 51 1011.8
20260502040039 45 215 0.0 0.0 0.00 0.00 0.00 48 1011.7
20260502034525 46 215 0.0 0.0 0.00 0.00 0.00 47 1011.4
20260502033021 48 215 0.0 0.0 0.00 0.00 0.00 45 1011.2
20260502031517 49 253 0.0 0.0 0.00 0.00 0.00 44 1011.0
20260502030011 50 257 0.0 0.0 0.00 0.00 0.00 43 1010.8
20260502024523 52 257 0.0 0.0 0.00 0.00 0.00 40 1010.9
20260502023003 54 257 0.0 0.0 0.00 0.00 0.00 37 1011.0
20260502021600 55 257 0.0 0.0 0.00 0.00 0.00 35 1010.9
20260502020055 55 257 0.0 0.0 0.00 0.00 0.00 34 1010.9
20260502014550 56 257 0.0 0.0 0.00 0.00 0.00 29 1011.0
20260502013046 56 257 0.0 0.0 0.00 0.00 0.00 31 1011.1
20260502011548 57 266 0.0 1.0 0.00 0.00 0.00 28 1011.1
20260502010036 58 270 0.0 1.0 0.00 0.00 0.00 23 1011.2
20260502004532 58 219 0.0 0.0 0.00 0.00 0.00 22 1011.3
20260502003029 59 245 0.0 1.0 0.00 0.00 0.00 19 1011.3
20260502001524 60 271 0.0 2.0 0.00 0.00 0.00 12 1011.4
20260502000020 62 283 0.0 2.0 0.00 0.00 0.00 13 1011.4
20260501234521 62 194 0.0 1.0 0.00 0.00 0.00 17 1011.5
20260501233018 61 243 0.0 3.0 0.00 0.00 0.00 21 1011.6
20260501231520 62 269 0.0 2.0 0.00 0.00 0.00 23 1011.6
20260501230012 61 240 0.0 3.0 0.00 0.00 0.00 21 1011.9
20260501224513 61 266 0.0 5.0 0.00 0.00 0.00 23 1012.0
20260501223009 62 226 0.0 2.0 0.00 0.00 0.00 24 1012.3
20260501221507 61 252 0.0 2.0 0.00 0.00 0.00 25 1012.4
20260501220004 61 240 0.0 2.0 0.00 0.00 0.00 26 1012.6
20260501214501 60 274 0.0 4.0 0.00 0.00 0.00 25 1012.8
20260501213113 60 274 0.0 4.0 0.00 0.00 0.00 25 1012.9
20260501211559 61 255 0.0 3.0 0.00 0.00 0.00 26 1013.1
20260501210058 60 210 0.0 3.0 0.00 0.00 0.00 27 1013.2
20260501204558 59 281 0.0 3.0 0.00 0.00 0.00 27 1013.3
20260501203106 61 264 0.0 4.0 0.00 0.00 0.00 27 1013.3
20260501201554 61 262 0.0 4.0 0.00 0.00 0.00 27 1013.4
20260501200051 59 246 0.0 2.0 0.00 0.00 0.00 27 1013.7
20260501194551 59 295 0.0 4.0 0.00 0.00 0.00 24 1013.8
20260501193047 58 253 0.0 2.0 0.00 0.00 0.00 28 1014.0
20260501191546 57 316 1.0 6.0 0.00 0.00 0.00 28 1014.3
20260501190043 56 233 0.0 3.0 0.00 0.00 0.00 28 1014.6
20260501184600 56 158 1.0 7.0 0.00 0.00 0.00 28 1014.7
20260501183042 55 210 1.0 4.0 0.00 0.00 0.00 29 1015.0
20260501181539 54 255 0.0 2.0 0.00 0.00 0.00 31 1014.9
20260501180035 54 242 0.0 2.0 0.00 0.00 0.00 30 1014.9
20260501174530 53 153 0.0 7.0 0.00 0.00 0.00 30 1014.9
20260501173029 53 215 0.0 2.0 0.00 0.00 0.00 33 1014.6
20260501171525 52 256 0.0 2.0 0.00 0.00 0.00 34 1014.6